QPF
0.02 0.02 0.03 0.05 0.04 0.05 0.05 0.05 0.07 0.06 0.04 0.03 0.02 0.01 0.01 0.01 0.00 0.00 0.00 0.00 0.00 0.00 0.00 0.00 0.00 0.00 0.00 0.00 0.00 0.00 0.00 0.00 0.01 0.01 0.01 0.02 0.02 0.02 0.01 0.01 0.01 0.01 0.01 0.01
0.00 0.00 0.01 0.02 0.02 0.02 0.03 0.03 0.03 0.04 0.04 0.02 0.01 0.01 0.01 0.01 0.01 0.00 0.00 0.00 0.00 0.00 0.00 0.00 0.00 0.00 0.00 0.00 0.00 0.00 0.00 0.00 0.00 0.00 0.00 0.01 0.01 0.01 0.02 0.01 0.01 0.01 0.01 0.01
0.01 0.01 0.02 0.01 0.01 0.02 0.03 0.02 0.03 0.04 0.05 0.03 0.01 0.01 0.01 0.01 0.01 0.00 0.00 0.00 0.00 0.00 0.00 0.00 0.00 0.00 0.00 0.00 0.00 0.00 0.00 0.00 0.00 0.00 0.00 0.00 0.00 0.00 0.01 0.01 0.01 0.01 0.01 0.00
0.02 0.02 0.03 0.01 0.00 0.01 0.03 0.03 0.02 0.03 0.04 0.03 0.01 0.01 0.02 0.02 0.01 0.01 0.00 0.00 0.00 0.00 0.00 0.00 0.00 0.00 0.00 0.00 0.00 0.00 0.00 0.00 0.00 0.00 0.00 0.00 0.00 0.00 0.00 0.00 0.00 0.00 0.00 0.00
0.03 0.03 0.02 0.01 0.01 0.01 0.02 0.04 0.02 0.01 0.01 0.01 0.01 0.01 0.02 0.02 0.01 0.01 0.01 0.00 0.00 0.00 0.00 0.00 0.00 0.00 0.00 0.00 0.00 0.00 0.00 0.00 0.00 0.00 0.00 0.00 0.00 0.00 0.00 0.00 0.00 0.00 0.00 0.00
0.03 0.04 0.05 0.03 0.01 0.01 0.03 0.07 0.03 0.02 0.01 0.01 0.01 0.01 0.01 0.02 0.03 0.02 0.01 0.00 0.00 0.00 0.00 0.00 0.00 0.00 0.00 0.00 0.00 0.00 0.00 0.00 0.00 0.00 0.00 0.00 0.00 0.00 0.00 0.00 0.00 0.00 0.00 0.00
0.03 0.04 0.04 0.03 0.01 0.02 0.05 0.10 0.05 0.03 0.03 0.02 0.02 0.02 0.01 0.01 0.01 0.02 0.01 0.00 0.00 0.00 0.00 0.00 0.00 0.00 0.00 0.00 0.00 0.00 0.00 0.00 0.00 0.00 0.00 0.00 0.00 0.00 0.00 0.00 0.00 0.00 0.00 0.00
0.02 0.03 0.04 0.02 0.03 0.05 0.06 0.05 0.04 0.03 0.03 0.04 0.03 0.02 0.01 0.01 0.01 0.01 0.00 0.00 0.00 0.00 0.01 0.01 0.01 0.00 0.00 0.00 0.00 0.00 0.00 0.00 0.00 0.00 0.00 0.00 0.00 0.00 0.00 0.00 0.00 0.00 0.00 0.00
0.02 0.03 0.04 0.04 0.05 0.05 0.03 0.02 0.02 0.02 0.02 0.03 0.04 0.03 0.02 0.02 0.01 0.01 0.00 0.01 0.01 0.01 0.01 0.01 0.01 0.01 0.01 0.01 0.00 0.01 0.01 0.00 0.00 0.00 0.00 0.00 0.00 0.00 0.00 0.00 0.00 0.00 0.00 0.00
0.02 0.03 0.03 0.03 0.03 0.01 0.01 0.01 0.02 0.02 0.02 0.02 0.03 0.03 0.03 0.02 0.02 0.01 0.02 0.02 0.02 0.02 0.02 0.01 0.01 0.01 0.02 0.02 0.02 0.01 0.01 0.01 0.00 0.00 0.00 0.00 0.00 0.00 0.00 0.00 0.00 0.00 0.00 0.00
0.02 0.02 0.01 0.01 0.01 0.01 0.01 0.01 0.01 0.01 0.01 0.02 0.02 0.03 0.03 0.02 0.01 0.01 0.02 0.02 0.01 0.01 0.02 0.02 0.02 0.02 0.02 0.01 0.01 0.01 0.01 0.01 0.01 0.00 0.00 0.00 0.00 0.00 0.00 0.00 0.00 0.00 0.00 0.00
0.01 0.01 0.01 0.01 0.00 0.00 0.00 0.00 0.00 0.01 0.01 0.02 0.02 0.03 0.03 0.03 0.03 0.02 0.02 0.02 0.01 0.01 0.01 0.01 0.02 0.02 0.02 0.01 0.01 0.01 0.01 0.01 0.01 0.00 0.01 0.00 0.00 0.00 0.01 0.01 0.01 0.00 0.00 0.00
0.01 0.01 0.00 0.00 0.00 0.00 0.00 0.00 0.01 0.01 0.02 0.02 0.02 0.03 0.03 0.03 0.04 0.03 0.02 0.02 0.01 0.01 0.01 0.01 0.01 0.01 0.01 0.01 0.01 0.01 0.01 0.01 0.01 0.01 0.01 0.01 0.01 0.01 0.00 0.01 0.01 0.01 0.01 0.01
0.00 0.00 0.00 0.00 0.00 0.00 0.01 0.01 0.01 0.01 0.01 0.02 0.02 0.02 0.02 0.02 0.02 0.02 0.03 0.02 0.02 0.01 0.01 0.01 0.01 0.01 0.00 0.01 0.01 0.01 0.01 0.01 0.01 0.01 0.01 0.01 0.01 0.01 0.01 0.01 0.01 0.01 0.01 0.01
0.00 0.00 0.00 0.00 0.00 0.00 0.00 0.00 0.01 0.01 0.01 0.02 0.03 0.03 0.02 0.02 0.02 0.01 0.01 0.01 0.02 0.02 0.01 0.01 0.01 0.01 0.00 0.00 0.00 0.00 0.01 0.01 0.01 0.01 0.01 0.01 0.01 0.01 0.01 0.01 0.01 0.01 0.00 0.01
0.00 0.00 0.00 0.00 0.00 0.00 0.00 0.01 0.01 0.02 0.02 0.02 0.03 0.04 0.04 0.03 0.02 0.02 0.02 0.02 0.02 0.02 0.01 0.01 0.01 0.01 0.00 0.00 0.00 0.00 0.00 0.01 0.01 0.01 0.01 0.01 0.01 0.01 0.01 0.01 0.01 0.01 0.01 0.00
0.00 0.00 0.00 0.00 0.00 0.00 0.01 0.01 0.01 0.02 0.03 0.03 0.04 0.05 0.05 0.04 0.03 0.03 0.03 0.03 0.02 0.01 0.01 0.01 0.01 0.01 0.00 0.00 0.01 0.01 0.01 0.01 0.01 0.01 0.01 0.01 0.01 0.01 0.01 0.01 0.01 0.01 0.01 0.01
0.00 0.00 0.00 0.01 0.01 0.01 0.01 0.02 0.02 0.02 0.03 0.04 0.03 0.03 0.03 0.03 0.03 0.02 0.02 0.02 0.01 0.01 0.01 0.01 0.01 0.01 0.01 0.01 0.01 0.01 0.01 0.01 0.01 0.01 0.01 0.01 0.01 0.01 0.01 0.01 0.01 0.01 0.01 0.01
0.00 0.00 0.00 0.01 0.01 0.02 0.02 0.02 0.03 0.04 0.04 0.04 0.04 0.04 0.03 0.03 0.03 0.02 0.01 0.01 0.01 0.01 0.01 0.01 0.01 0.01 0.01 0.01 0.01 0.00 0.00 0.00 0.01 0.01 0.01 0.01 0.01 0.01 0.01 0.01 0.01 0.01 0.01 0.01
0.00 0.00 0.00 0.00 0.01 0.02 0.02 0.02 0.03 0.04 0.04 0.04 0.04 0.03 0.03 0.03 0.03 0.02 0.02 0.01 0.01 0.01 0.00 0.00 0.00 0.00 0.00 0.00 0.00 0.00 0.00 0.00 0.00 0.00 0.00 0.01 0.01 0.01 0.01 0.01 0.01 0.01 0.01 0.01
0.00 0.00 0.00 0.00 0.01 0.02 0.02 0.03 0.03 0.03 0.03 0.03 0.03 0.02 0.02 0.02 0.02 0.02 0.01 0.01 0.01 0.00 0.00 0.00 0.00 0.00 0.00 0.01 0.01 0.00 0.00 0.00 0.00 0.00 0.01 0.01 0.01 0.01 0.01 0.01 0.01 0.01 0.01 0.01
0.00 0.00 0.00 0.00 0.00 0.01 0.02 0.02 0.02 0.02 0.02 0.01 0.01 0.01 0.01 0.01 0.02 0.02 0.01 0.01 0.01 0.01 0.01 0.01 0.00 0.01 0.01 0.01 0.01 0.00 0.00 0.01 0.01 0.01 0.01 0.01 0.01 0.01 0.01 0.01 0.01 0.01 0.01 0.01
0.00 0.00 0.00 0.00 0.01 0.01 0.01 0.02 0.02 0.02 0.01 0.01 0.01 0.01 0.01 0.01 0.01 0.01 0.01 0.01 0.01 0.01 0.01 0.00 0.00 0.01 0.01 0.01 0.00 0.00 0.00 0.01 0.01 0.01 0.01 0.01 0.01 0.01 0.01 0.01 0.01 0.01 0.01 0.01
0.00 0.00 0.00 0.00 0.01 0.01 0.02 0.02 0.01 0.01 0.01 0.01 0.01 0.01 0.01 0.01 0.01 0.01 0.01 0.01 0.01 0.01 0.01 0.00 0.01 0.01 0.01 0.00 0.00 0.00 0.00 0.00 0.01 0.01 0.01 0.01 0.01 0.01 0.01 0.01 0.01 0.01 0.01 0.01
0.00 0.00 0.00 0.01 0.01 0.01 0.01 0.01 0.01 0.01 0.01 0.01 0.01 0.01 0.01 0.01 0.01 0.01 0.01 0.01 0.01 0.01 0.00 0.00 0.00 0.00 0.00 0.00 0.00 0.00 0.00 0.00 0.01 0.01 0.01 0.01 0.01 0.01 0.01 0.01 0.01 0.01 0.01 0.01
0.00 0.00 0.00 0.00 0.00 0.01 0.01 0.01 0.01 0.01 0.01 0.01 0.01 0.00 0.00 0.01 0.01 0.01 0.01 0.01 0.01 0.01 0.01 0.00 0.00 0.01 0.01 0.01 0.00 0.00 0.00 0.00 0.00 0.00 0.00 0.00 0.01 0.01 0.01 0.01 0.01 0.01 0.01 0.01
0.00 0.00 0.00 0.00 0.00 0.00 0.00 0.01 0.01 0.01 0.01 0.01 0.00 0.00 0.00 0.00 0.00 0.01 0.01 0.01 0.01 0.01 0.01 0.01 0.01 0.01 0.01 0.01 0.01 0.01 0.01 0.01 0.00 0.00 0.00 0.00 0.00 0.01 0.01 0.01 0.01 0.01 0.01 0.01
MSLP
1016.53 1015.98 1015.47 1015.03 1014.64 1014.31 1014.01 1013.72 1013.42 1013.12 1012.82 1012.51 1012.23 1012.00 1011.84 1011.75 1011.75 1011.83 1011.97 1012.15 1012.36 1012.58 1012.81 1013.03 1013.27 1013.52 1013.80 1014.13 1014.50 1014.91 1015.34 1015.80 1016.26 1016.71 1017.14 1017.54 1017.92 1018.29 1018.64 1018.98 1019.30 1019.62 1019.91 1020.17
1016.94 1016.33 1015.74 1015.21 1014.75 1014.35 1014.01 1013.70 1013.42 1013.15 1012.89 1012.64 1012.41 1012.21 1012.07 1011.98 1011.95 1011.98 1012.07 1012.19 1012.36 1012.54 1012.75 1012.98 1013.23 1013.53 1013.86 1014.24 1014.66 1015.12 1015.61 1016.12 1016.62 1017.11 1017.58 1018.02 1018.42 1018.81 1019.16 1019.49 1019.80 1020.08 1020.32 1020.53
1017.29 1016.66 1016.05 1015.49 1015.00 1014.58 1014.23 1013.93 1013.66 1013.42 1013.19 1012.96 1012.74 1012.54 1012.36 1012.22 1012.13 1012.09 1012.09 1012.15 1012.25 1012.40 1012.58 1012.81 1013.09 1013.41 1013.78 1014.22 1014.69 1015.20 1015.74 1016.29 1016.84 1017.37 1017.88 1018.36 1018.80 1019.21 1019.57 1019.91 1020.20 1020.45 1020.66 1020.83
1017.61 1017.01 1016.42 1015.89 1015.42 1015.03 1014.71 1014.44 1014.20 1013.98 1013.76 1013.52 1013.27 1013.02 1012.78 1012.56 1012.36 1012.22 1012.12 1012.09 1012.11 1012.21 1012.36 1012.58 1012.85 1013.20 1013.61 1014.07 1014.58 1015.13 1015.71 1016.30 1016.90 1017.48 1018.03 1018.55 1019.03 1019.47 1019.86 1020.20 1020.49 1020.73 1020.92 1021.05
1017.95 1017.41 1016.89 1016.42 1016.02 1015.70 1015.43 1015.21 1015.01 1014.80 1014.57 1014.30 1014.00 1013.68 1013.34 1013.00 1012.69 1012.42 1012.21 1012.07 1012.02 1012.04 1012.15 1012.34 1012.60 1012.95 1013.36 1013.84 1014.37 1014.95 1015.56 1016.18 1016.82 1017.44 1018.04 1018.61 1019.13 1019.61 1020.02 1020.38 1020.67 1020.90 1021.07 1021.19
1018.35 1017.89 1017.45 1017.08 1016.77 1016.53 1016.33 1016.16 1015.99 1015.79 1015.54 1015.23 1014.86 1014.44 1013.99 1013.54 1013.10 1012.72 1012.40 1012.16 1012.01 1011.97 1012.02 1012.17 1012.40 1012.72 1013.12 1013.59 1014.12 1014.70 1015.33 1015.98 1016.64 1017.31 1017.95 1018.57 1019.13 1019.64 1020.08 1020.45 1020.74 1020.96 1021.12 1021.22
1018.80 1018.42 1018.08 1017.80 1017.58 1017.42 1017.29 1017.17 1017.02 1016.82 1016.54 1016.18 1015.73 1015.22 1014.67 1014.11 1013.57 1013.09 1012.67 1012.35 1012.14 1012.02 1012.02 1012.12 1012.31 1012.58 1012.94 1013.38 1013.89 1014.46 1015.08 1015.74 1016.43 1017.12 1017.81 1018.46 1019.06 1019.59 1020.05 1020.42 1020.71 1020.92 1021.06 1021.15
1019.28 1018.97 1018.70 1018.50 1018.37 1018.27 1018.19 1018.10 1017.95 1017.73 1017.41 1016.99 1016.48 1015.90 1015.27 1014.64 1014.03 1013.48 1013.01 1012.64 1012.38 1012.23 1012.18 1012.23 1012.37 1012.60 1012.90 1013.29 1013.75 1014.29 1014.89 1015.54 1016.23 1016.93 1017.64 1018.31 1018.94 1019.49 1019.95 1020.32 1020.60 1020.78 1020.90 1020.96
1019.72 1019.46 1019.26 1019.12 1019.04 1018.98 1018.92 1018.82 1018.65 1018.39 1018.03 1017.55 1016.98 1016.35 1015.68 1015.02 1014.39 1013.83 1013.36 1012.99 1012.73 1012.57 1012.50 1012.52 1012.62 1012.79 1013.03 1013.35 1013.75 1014.23 1014.79 1015.41 1016.08 1016.78 1017.49 1018.16 1018.79 1019.34 1019.79 1020.15 1020.40 1020.56 1020.65 1020.69
1020.07 1019.86 1019.70 1019.59 1019.52 1019.46 1019.38 1019.25 1019.04 1018.72 1018.30 1017.77 1017.16 1016.50 1015.83 1015.18 1014.59 1014.08 1013.66 1013.35 1013.14 1013.01 1012.96 1012.97 1013.03 1013.16 1013.34 1013.58 1013.91 1014.31 1014.80 1015.37 1016.00 1016.67 1017.35 1018.01 1018.62 1019.15 1019.59 1019.91 1020.14 1020.27 1020.32 1020.34
1020.29 1020.10 1019.96 1019.86 1019.79 1019.70 1019.58 1019.38 1019.10 1018.71 1018.22 1017.64 1017.00 1016.34 1015.70 1015.11 1014.60 1014.19 1013.88 1013.67 1013.55 1013.49 1013.49 1013.52 1013.58 1013.66 1013.79 1013.96 1014.20 1014.52 1014.93 1015.42 1015.98 1016.60 1017.24 1017.86 1018.43 1018.93 1019.33 1019.62 1019.81 1019.91 1019.93 1019.93
1020.35 1020.19 1020.06 1019.96 1019.86 1019.73 1019.53 1019.26 1018.88 1018.41 1017.85 1017.23 1016.57 1015.93 1015.34 1014.84 1014.44 1014.16 1013.99 1013.92 1013.93 1013.97 1014.05 1014.12 1014.19 1014.26 1014.34 1014.44 1014.60 1014.82 1015.14 1015.54 1016.02 1016.55 1017.12 1017.68 1018.20 1018.66 1019.01 1019.26 1019.42 1019.49 1019.49 1019.47
1020.27 1020.15 1020.05 1019.94 1019.81 1019.62 1019.36 1018.99 1018.53 1017.97 1017.34 1016.67 1016.00 1015.39 1014.87 1014.46 1014.19 1014.05 1014.03 1014.11 1014.26 1014.42 1014.58 1014.72 1014.81 1014.87 1014.91 1014.96 1015.03 1015.17 1015.38 1015.68 1016.06 1016.50 1016.99 1017.47 1017.93 1018.32 1018.63 1018.84 1018.96 1019.00 1018.99 1018.96
1020.10 1020.03 1019.96 1019.87 1019.72 1019.49 1019.15 1018.71 1018.16 1017.53 1016.83 1016.13 1015.46 1014.88 1014.41 1014.10 1013.94 1013.94 1014.07 1014.29 1014.56 1014.83 1015.08 1015.27 1015.40 1015.46 1015.47 1015.46 1015.46 1015.51 1015.63 1015.82 1016.09 1016.44 1016.82 1017.22 1017.59 1017.92 1018.17 1018.34 1018.43 1018.46 1018.43 1018.40
1019.89 1019.89 1019.88 1019.81 1019.66 1019.40 1019.03 1018.53 1017.92 1017.23 1016.49 1015.76 1015.10 1014.54 1014.13 1013.89 1013.83 1013.93 1014.16 1014.49 1014.86 1015.22 1015.53 1015.77 1015.92 1015.98 1015.97 1015.92 1015.86 1015.83 1015.85 1015.94 1016.11 1016.35 1016.63 1016.93 1017.22 1017.47 1017.67 1017.79 1017.85 1017.85 1017.82 1017.77
1019.70 1019.78 1019.83 1019.81 1019.68 1019.43 1019.04 1018.52 1017.88 1017.16 1016.41 1015.68 1015.02 1014.49 1014.12 1013.93 1013.93 1014.09 1014.39 1014.78 1015.21 1015.61 1015.96 1016.22 1016.38 1016.44 1016.41 1016.32 1016.21 1016.11 1016.05 1016.05 1016.13 1016.26 1016.44 1016.64 1016.84 1017.01 1017.14 1017.22 1017.24 1017.21 1017.16 1017.10
1019.54 1019.72 1019.84 1019.88 1019.80 1019.58 1019.21 1018.70 1018.07 1017.36 1016.62 1015.90 1015.27 1014.77 1014.43 1014.28 1014.30 1014.49 1014.81 1015.21 1015.64 1016.05 1016.40 1016.65 1016.80 1016.84 1016.79 1016.67 1016.52 1016.37 1016.25 1016.17 1016.16 1016.20 1016.28 1016.39 1016.50 1016.59 1016.65 1016.66 1016.64 1016.58 1016.51 1016.43
1019.45 1019.70 1019.90 1020.01 1019.98 1019.81 1019.49 1019.02 1018.44 1017.77 1017.08 1016.41 1015.82 1015.36 1015.05 1014.91 1014.94 1015.12 1015.41 1015.78 1016.17 1016.55 1016.86 1017.08 1017.20 1017.22 1017.14 1017.00 1016.82 1016.63 1016.46 1016.33 1016.24 1016.20 1016.20 1016.22 1016.24 1016.25 1016.24 1016.20 1016.13 1016.03 1015.92 1015.82
1019.41 1019.72 1019.98 1020.14 1020.17 1020.06 1019.80 1019.40 1018.90 1018.31 1017.70 1017.11 1016.59 1016.17 1015.89 1015.76 1015.78 1015.92 1016.16 1016.47 1016.79 1017.09 1017.34 1017.51 1017.59 1017.57 1017.47 1017.32 1017.12 1016.91 1016.72 1016.55 1016.41 1016.30 1016.23 1016.17 1016.12 1016.06 1015.98 1015.88 1015.76 1015.62 1015.47 1015.33
1019.41 1019.75 1020.04 1020.24 1020.32 1020.26 1020.07 1019.75 1019.34 1018.85 1018.34 1017.85 1017.41 1017.07 1016.83 1016.71 1016.71 1016.81 1016.99 1017.21 1017.45 1017.66 1017.83 1017.93 1017.96 1017.91 1017.80 1017.63 1017.43 1017.22 1017.02 1016.83 1016.66 1016.52 1016.40 1016.28 1016.17 1016.05 1015.91 1015.75 1015.58 1015.40 1015.22 1015.04
1019.42 1019.76 1020.05 1020.26 1020.36 1020.34 1020.21 1019.98 1019.66 1019.29 1018.90 1018.52 1018.18 1017.91 1017.72 1017.63 1017.61 1017.68 1017.79 1017.93 1018.08 1018.21 1018.29 1018.33 1018.30 1018.22 1018.10 1017.93 1017.74 1017.55 1017.35 1017.16 1016.99 1016.83 1016.68 1016.52 1016.37 1016.20 1016.02 1015.82 1015.61 1015.39 1015.17 1014.96
1019.44 1019.75 1020.01 1020.19 1020.29 1020.29 1020.20 1020.03 1019.81 1019.54 1019.27 1019.00 1018.77 1018.59 1018.46 1018.40 1018.38 1018.41 1018.48 1018.55 1018.61 1018.66 1018.68 1018.65 1018.59 1018.49 1018.36 1018.20 1018.04 1017.86 1017.69 1017.53 1017.36 1017.20 1017.03 1016.86 1016.68 1016.48 1016.27 1016.05 1015.81 1015.57 1015.32 1015.08
1019.46 1019.71 1019.91 1020.05 1020.11 1020.10 1020.04 1019.92 1019.76 1019.59 1019.42 1019.26 1019.13 1019.04 1018.97 1018.95 1018.95 1018.96 1018.99 1019.01 1019.01 1019.00 1018.95 1018.89 1018.80 1018.69 1018.56 1018.43 1018.29 1018.15 1018.01 1017.87 1017.73 1017.58 1017.42 1017.25 1017.05 1016.84 1016.61 1016.37 1016.11 1015.85 1015.59 1015.33
1019.48 1019.65 1019.78 1019.84 1019.86 1019.82 1019.75 1019.66 1019.56 1019.46 1019.37 1019.30 1019.26 1019.24 1019.25 1019.26 1019.28 1019.29 1019.30 1019.29 1019.25 1019.19 1019.12 1019.02 1018.92 1018.81 1018.69 1018.58 1018.48 1018.38 1018.28 1018.17 1018.05 1017.92 1017.78 1017.60 1017.40 1017.18 1016.94 1016.69 1016.43 1016.16 1015.88 1015.61
1019.49 1019.58 1019.62 1019.61 1019.57 1019.49 1019.40 1019.32 1019.24 1019.19 1019.17 1019.17 1019.20 1019.25 1019.31 1019.36 1019.41 1019.43 1019.43 1019.40 1019.35 1019.27 1019.17 1019.07 1018.96 1018.86 1018.77 1018.68 1018.61 1018.54 1018.47 1018.39 1018.30 1018.18 1018.04 1017.87 1017.67 1017.44 1017.19 1016.93 1016.65 1016.37 1016.09 1015.80
1019.47 1019.49 1019.45 1019.38 1019.27 1019.16 1019.04 1018.95 1018.89 1018.87 1018.89 1018.94 1019.03 1019.13 1019.23 1019.32 1019.39 1019.43 1019.44 1019.41 1019.35 1019.26 1019.17 1019.06 1018.96 1018.87 1018.79 1018.73 1018.68 1018.63 1018.58 1018.52 1018.44 1018.33 1018.19 1018.01 1017.80 1017.55 1017.29 1017.00 1016.70 1016.40 1016.10 1015.79
1019.39 1019.36 1019.27 1019.15 1019.00 1018.85 1018.72 1018.62 1018.57 1018.57 1018.61 1018.70 1018.82 1018.96 1019.09 1019.21 1019.30 1019.36 1019.38 1019.36 1019.31 1019.23 1019.14 1019.04 1018.95 1018.87 1018.80 1018.75 1018.71 1018.67 1018.63 1018.56 1018.47 1018.35 1018.19 1017.99 1017.75 1017.47 1017.17 1016.86 1016.53 1016.19 1015.86 1015.52
Thickness
5468 5474 5474 5475 5480 5481 5477 5477 5476 5487 5494 5504 5508 5512 5517 5521 5524 5527 5531 5535 5539 5541 5544 5546 5549 5551 5553 5555 5557 5557 5557 5556 5555 5554 5552 5550 5549 5547 5546 5544 5542 5540 5537 5536
5462 5474 5474 5474 5478 5481 5480 5481 5480 5484 5489 5498 5503 5506 5508 5512 5517 5520 5523 5527 5531 5534 5536 5538 5540 5543 5544 5546 5547 5547 5546 5545 5543 5542 5540 5538 5537 5535 5533 5531 5529 5527 5525 5523
5451 5463 5468 5465 5473 5476 5477 5479 5480 5481 5486 5492 5495 5499 5500 5503 5508 5512 5515 5519 5523 5527 5530 5533 5534 5536 5537 5538 5538 5538 5537 5535 5533 5531 5529 5527 5525 5523 5521 5519 5516 5515 5513 5511
5445 5453 5455 5469 5473 5474 5474 5474 5475 5478 5482 5485 5489 5493 5494 5496 5499 5502 5506 5510 5514 5518 5522 5525 5528 5529 5530 5530 5529 5529 5527 5525 5523 5521 5518 5516 5513 5511 5509 5507 5505 5503 5501 5499
5442 5444 5454 5467 5467 5466 5467 5469 5467 5469 5474 5479 5484 5487 5487 5489 5491 5493 5497 5501 5505 5509 5513 5517 5519 5521 5521 5520 5520 5519 5518 5517 5515 5512 5509 5506 5503 5501 5499 5497 5495 5492 5491 5489
5439 5444 5449 5456 5461 5463 5464 5462 5460 5462 5464 5469 5475 5474 5478 5480 5482 5485 5489 5493 5497 5501 5505 5507 5510 5512 5512 5511 5511 5511 5511 5509 5506 5504 5501 5498 5495 5491 5489 5487 5485 5483 5480 5478
5435 5438 5445 5450 5453 5460 5456 5452 5451 5454 5456 5460 5462 5464 5467 5471 5473 5476 5480 5484 5488 5491 5494 5497 5500 5502 5502 5502 5503 5503 5502 5499 5496 5494 5492 5489 5485 5482 5480 5477 5475 5472 5470 5468
5433 5432 5439 5445 5446 5442 5440 5442 5444 5447 5449 5452 5455 5458 5461 5463 5465 5467 5470 5474 5478 5481 5483 5486 5490 5492 5493 5493 5494 5493 5491 5489 5487 5484 5482 5479 5475 5472 5470 5468 5465 5462 5460 5458
5433 5436 5438 5437 5434 5432 5432 5433 5436 5438 5442 5444 5448 5450 5453 5454 5456 5458 5461 5464 5467 5470 5472 5475 5478 5481 5481 5482 5482 5482 5480 5478 5476 5474 5472 5470 5467 5464 5461 5459 5457 5454 5452 5450
5431 5434 5433 5430 5427 5427 5427 5427 5430 5432 5435 5437 5440 5443 5444 5446 5448 5449 5452 5454 5457 5459 5461 5463 5466 5468 5470 5471 5472 5471 5470 5468 5466 5464 5462 5460 5458 5456 5454 5452 5449 5446 5444 5442
5426 5428 5426 5427 5423 5421 5421 5422 5424 5426 5428 5430 5432 5435 5437 5438 5440 5442 5443 5445 5447 5449 5451 5452 5454 5456 5458 5460 5461 5460 5459 5457 5456 5455 5454 5452 5450 5449 5447 5446 5443 5441 5439 5436
5422 5422 5417 5417 5417 5414 5413 5414 5416 5417 5420 5422 5424 5426 5428 5429 5431 5433 5434 5436 5437 5439 5441 5442 5444 5445 5447 5448 5450 5450 5448 5447 5446 5445 5444 5443 5441 5439 5439 5437 5436 5435 5433 5431
5420 5417 5412 5411 5410 5408 5406 5407 5408 5409 5411 5412 5415 5416 5418 5420 5422 5423 5424 5426 5427 5429 5430 5432 5433 5434 5435 5437 5438 5439 5439 5438 5437 5436 5435 5434 5433 5431 5430 5429 5429 5428 5427 5426
5414 5410 5407 5405 5402 5401 5399 5399 5399 5400 5401 5402 5404 5405 5407 5409 5411 5413 5415 5416 5418 5419 5420 5421 5422 5423 5424 5426 5428 5428 5428 5429 5428 5427 5427 5426 5425 5423 5422 5421 5420 5420 5420 5419
5408 5403 5399 5397 5395 5394 5393 5391 5391 5391 5391 5392 5393 5394 5396 5399 5401 5403 5405 5407 5408 5409 5409 5410 5411 5412 5414 5416 5417 5418 5419 5419 5419 5418 5418 5417 5416 5415 5414 5414 5413 5413 5411 5411
5403 5398 5394 5391 5388 5386 5384 5383 5382 5382 5382 5382 5383 5384 5386 5389 5391 5393 5394 5396 5397 5398 5399 5400 5401 5402 5404 5406 5407 5408 5409 5410 5410 5409 5409 5408 5408 5407 5407 5406 5406 5405 5405 5404
5396 5392 5387 5383 5380 5378 5375 5374 5374 5373 5372 5373 5374 5375 5377 5379 5380 5382 5383 5385 5386 5387 5388 5389 5390 5392 5394 5395 5397 5398 5399 5400 5401 5400 5400 5400 5400 5400 5400 5399 5399 5399 5399 5398
5393 5388 5382 5377 5373 5370 5368 5367 5365 5363 5362 5363 5364 5365 5367 5368 5370 5371 5373 5374 5376 5377 5377 5379 5381 5382 5383 5385 5386 5387 5388 5389 5390 5391 5391 5392 5392 5392 5392 5392 5392 5391 5391 5390
5387 5382 5376 5372 5367 5363 5361 5358 5356 5354 5353 5353 5354 5354 5355 5357 5359 5360 5362 5364 5365 5367 5368 5369 5371 5372 5373 5374 5376 5377 5378 5379 5380 5381 5382 5383 5384 5384 5384 5384 5384 5383 5383 5382
5381 5376 5370 5365 5361 5356 5353 5351 5348 5346 5345 5344 5344 5345 5346 5347 5349 5351 5352 5354 5355 5356 5358 5360 5361 5362 5363 5365 5366 5367 5368 5369 5371 5372 5373 5373 5374 5375 5375 5375 5375 5375 5375 5374
5374 5369 5364 5358 5354 5350 5346 5343 5340 5339 5337 5336 5336 5337 5338 5339 5340 5341 5343 5345 5346 5346 5348 5350 5351 5352 5354 5355 5356 5357 5358 5359 5360 5361 5362 5363 5364 5365 5365 5365 5366 5366 5366 5366
5366 5360 5356 5351 5346 5343 5339 5335 5332 5330 5329 5328 5328 5328 5329 5330 5331 5332 5333 5334 5336 5338 5338 5339 5341 5343 5345 5346 5346 5347 5347 5348 5350 5350 5351 5352 5353 5354 5355 5355 5355 5356 5357 5357
5357 5352 5347 5343 5338 5334 5331 5327 5325 5322 5321 5320 5320 5320 5320 5321 5322 5323 5325 5325 5326 5328 5329 5330 5332 5334 5336 5336 5336 5336 5337 5338 5339 5340 5341 5342 5343 5344 5345 5345 5346 5346 5347 5347
5349 5344 5339 5334 5329 5325 5322 5320 5317 5315 5313 5312 5312 5312 5312 5312 5314 5314 5315 5316 5318 5319 5319 5321 5323 5325 5326 5325 5326 5326 5326 5327 5328 5329 5330 5332 5333 5334 5335 5335 5336 5336 5337 5337
5341 5335 5330 5325 5322 5319 5316 5313 5310 5308 5306 5305 5305 5305 5304 5304 5305 5306 5306 5307 5308 5310 5310 5311 5313 5315 5315 5315 5316 5316 5317 5317 5318 5319 5320 5321 5322 5323 5324 5325 5325 5326 5327 5327
5333 5328 5324 5320 5316 5312 5309 5306 5303 5302 5300 5299 5299 5298 5297 5297 5297 5297 5298 5298 5299 5301 5301 5302 5303 5304 5305 5306 5307 5307 5308 5308 5309 5309 5310 5311 5312 5313 5314 5315 5315 5316 5317 5317
5325 5320 5316 5313 5310 5306 5302 5299 5297 5295 5294 5292 5291 5291 5290 5290 5290 5290 5290 5290 5291 5292 5293 5293 5294 5295 5296 5297 5298 5299 5299 5300 5300 5301 5302 5302 5303 5304 5305 5305 5306 5307 5307 5308